Location: *
(38.9800°N, 16.0500°E)
Time: 05:48:44
(UTC+00:00)

Cosmos 2150 Rocket - Pass Details

Date: 07 April 2020
Orbit: 749 x 807 km, 74.0° (Epoch: 05 June)

Event Time Altitude Azimuth Distance (km) Brightness Sun altitude
Exits shadow 01:43:15 62° 26° (NNE) 897 4.4 -30.2°
Drops below altitude 10° 01:47:47 10° 20° (NNE) 2,391 7.2 -29.5°
Sets 01:50:12 0° 20° (NNE) 3,329 8.1 -29.2°
